Total_Precipitation_Accumulation
0.14 0.21 0.45 0.70 0.78 1.09 1.28 1.00 0.69 0.57 0.55 0.64 0.75 0.91 1.05 1.17 1.25 1.28 1.32 1.41 1.48 1.48 1.48 1.47 1.45 1.36 1.32 1.25 1.12 0.98 0.88 0.78 0.64 0.54 0.44 0.34 0.26 0.23 0.22 0.18 0.14 0.12 0.12
0.16 0.25 0.44 0.69 0.87 0.98 0.95 0.92 0.88 0.92 0.87 1.02 1.29 1.59 1.85 1.97 2.12 2.26 2.39 2.46 2.40 2.24 2.11 1.95 1.73 1.53 1.42 1.34 1.21 1.04 0.91 0.78 0.64 0.55 0.50 0.38 0.28 0.20 0.14 0.12 0.11 0.09 0.08
0.18 0.29 0.42 0.61 0.77 0.93 0.98 0.99 1.05 1.19 1.22 1.49 1.89 2.28 2.63 2.85 3.02 3.07 3.09 3.00 2.74 2.50 2.31 2.04 1.81 1.67 1.55 1.42 1.29 1.09 0.95 0.76 0.58 0.46 0.45 0.42 0.33 0.22 0.13 0.08 0.06 0.05 0.05
0.17 0.27 0.34 0.55 0.68 0.83 1.00 1.09 1.19 1.38 1.68 1.99 2.34 2.82 3.21 3.46 3.51 3.33 3.10 2.79 2.49 2.23 1.98 1.81 1.72 1.61 1.46 1.32 1.12 0.90 0.75 0.61 0.49 0.41 0.37 0.32 0.27 0.23 0.16 0.10 0.06 0.05 0.04
0.17 0.24 0.31 0.47 0.65 0.81 0.95 1.15 1.33 1.59 2.00 2.54 2.98 3.37 3.65 3.66 3.39 3.05 2.63 2.36 2.13 1.90 1.66 1.49 1.39 1.30 1.14 0.94 0.74 0.58 0.49 0.40 0.33 0.28 0.25 0.22 0.19 0.17 0.16 0.13 0.08 0.05 0.03
0.17 0.21 0.29 0.43 0.58 0.70 0.89 1.11 1.38 1.68 2.09 2.57 3.08 3.35 3.48 3.44 3.15 2.71 2.31 2.02 1.75 1.49 1.27 1.03 0.86 0.72 0.58 0.45 0.35 0.29 0.25 0.22 0.19 0.16 0.15 0.15 0.15 0.14 0.14 0.14 0.09 0.06 0.04
0.21 0.25 0.31 0.38 0.50 0.61 0.79 0.97 1.14 1.47 1.77 2.12 2.52 2.59 2.54 2.40 2.14 2.00 1.84 1.56 1.25 0.99 0.77 0.59 0.47 0.37 0.30 0.24 0.19 0.16 0.13 0.11 0.11 0.11 0.11 0.10 0.09 0.09 0.10 0.12 0.10 0.07 0.04
0.23 0.27 0.32 0.39 0.53 0.65 0.76 0.87 1.00 1.20 1.38 1.50 1.61 1.57 1.46 1.39 1.33 1.24 1.05 0.85 0.68 0.53 0.42 0.33 0.26 0.20 0.15 0.11 0.09 0.07 0.07 0.07 0.08 0.07 0.08 0.09 0.08 0.08 0.10 0.13 0.15 0.14 0.08
0.29 0.34 0.40 0.45 0.51 0.58 0.67 0.69 0.70 0.81 0.84 0.82 0.81 0.81 0.83 0.80 0.74 0.63 0.51 0.42 0.34 0.28 0.22 0.17 0.12 0.08 0.07 0.07 0.06 0.06 0.06 0.07 0.08 0.08 0.08 0.09 0.09 0.09 0.10 0.12 0.15 0.20 0.18
0.35 0.40 0.42 0.43 0.40 0.40 0.43 0.44 0.42 0.42 0.44 0.45 0.42 0.42 0.42 0.40 0.34 0.29 0.26 0.22 0.18 0.14 0.12 0.10 0.09 0.07 0.06 0.06 0.06 0.06 0.07 0.08 0.09 0.10 0.10 0.10 0.09 0.10 0.10 0.10 0.13 0.19 0.26
0.38 0.38 0.36 0.33 0.31 0.29 0.27 0.27 0.27 0.27 0.27 0.28 0.26 0.24 0.22 0.18 0.15 0.13 0.12 0.11 0.10 0.09 0.08 0.08 0.08 0.08 0.08 0.07 0.08 0.09 0.09 0.09 0.08 0.08 0.09 0.08 0.09 0.10 0.10 0.10 0.12 0.14 0.21
0.42 0.40 0.34 0.28 0.24 0.22 0.20 0.20 0.22 0.21 0.21 0.19 0.17 0.15 0.12 0.11 0.10 0.09 0.08 0.08 0.07 0.07 0.08 0.08 0.08 0.07 0.06 0.07 0.08 0.08 0.08 0.08 0.08 0.07 0.08 0.08 0.08 0.09 0.09 0.10 0.11 0.14 0.20
0.60 0.51 0.38 0.28 0.22 0.20 0.20 0.20 0.21 0.20 0.16 0.13 0.10 0.09 0.08 0.08 0.07 0.07 0.07 0.06 0.07 0.08 0.08 0.07 0.06 0.06 0.07 0.08 0.07 0.07 0.06 0.06 0.06 0.07 0.08 0.09 0.10 0.09 0.11 0.14 0.15 0.18 0.22
0.59 0.46 0.37 0.30 0.26 0.22 0.21 0.18 0.16 0.14 0.11 0.08 0.07 0.07 0.07 0.07 0.08 0.08 0.09 0.08 0.09 0.09 0.08 0.08 0.07 0.07 0.07 0.06 0.04 0.03 0.04 0.04 0.05 0.06 0.09 0.10 0.11 0.13 0.18 0.19 0.22 0.27 0.31
0.58 0.54 0.48 0.40 0.31 0.24 0.20 0.17 0.16 0.13 0.11 0.09 0.09 0.09 0.09 0.09 0.10 0.11 0.12 0.11 0.11 0.09 0.09 0.08 0.07 0.06 0.04 0.02 0.01 0.01 0.01 0.03 0.04 0.06 0.09 0.11 0.11 0.16 0.19 0.19 0.24 0.32 0.38
0.80 0.75 0.63 0.51 0.38 0.31 0.28 0.24 0.21 0.17 0.13 0.13 0.14 0.14 0.14 0.15 0.16 0.16 0.15 0.15 0.13 0.11 0.08 0.05 0.04 0.03 0.02 0.01 0.01 0.01 0.01 0.02 0.05 0.09 0.10 0.08 0.07 0.08 0.09 0.14 0.21 0.30 0.39
0.89 0.80 0.67 0.56 0.50 0.46 0.41 0.36 0.31 0.26 0.23 0.22 0.21 0.20 0.19 0.19 0.18 0.16 0.14 0.12 0.10 0.08 0.07 0.05 0.04 0.05 0.03 0.00 0.00 0.00 0.01 0.04 0.09 0.12 0.12 0.09 0.08 0.12 0.17 0.17 0.17 0.25 0.33
1.07 0.94 0.78 0.67 0.59 0.52 0.46 0.39 0.33 0.28 0.26 0.26 0.25 0.23 0.20 0.18 0.15 0.12 0.10 0.08 0.07 0.07 0.06 0.05 0.05 0.07 0.04 0.00 0.00 0.00 0.01 0.06 0.09 0.10 0.12 0.15 0.18 0.16 0.13 0.14 0.22 0.32 0.42
1.00 0.89 0.76 0.67 0.61 0.53 0.45 0.38 0.33 0.30 0.28 0.26 0.21 0.16 0.12 0.10 0.08 0.07 0.06 0.06 0.06 0.06 0.05 0.04 0.05 0.08 0.07 0.01 0.00 0.00 0.02 0.05 0.07 0.09 0.11 0.12 0.17 0.13 0.12 0.19 0.31 0.39 0.52
0.69 0.65 0.62 0.60 0.55 0.46 0.38 0.34 0.31 0.26 0.22 0.15 0.11 0.07 0.05 0.05 0.05 0.05 0.06 0.06 0.06 0.06 0.05 0.05 0.06 0.08 0.09 0.02 0.00 0.01 0.03 0.05 0.06 0.09 0.14 0.13 0.10 0.11 0.15 0.22 0.38 0.54 0.62
0.58 0.56 0.53 0.51 0.45 0.34 0.27 0.24 0.20 0.16 0.12 0.08 0.05 0.03 0.02 0.02 0.03 0.05 0.07 0.08 0.08 0.08 0.07 0.08 0.09 0.08 0.05 0.03 0.00 0.01 0.03 0.05 0.07 0.12 0.18 0.21 0.16 0.16 0.18 0.29 0.47 0.65 0.68
0.53 0.52 0.48 0.41 0.31 0.23 0.19 0.18 0.14 0.08 0.06 0.06 0.05 0.03 0.02 0.02 0.02 0.07 0.10 0.10 0.10 0.10 0.10 0.09 0.08 0.07 0.07 0.05 0.01 0.00 0.01 0.04 0.10 0.22 0.25 0.27 0.25 0.22 0.27 0.40 0.58 0.72 0.86
0.50 0.45 0.37 0.29 0.19 0.14 0.13 0.13 0.10 0.06 0.06 0.07 0.07 0.05 0.04 0.03 0.03 0.07 0.10 0.11 0.11 0.08 0.07 0.07 0.07 0.07 0.09 0.08 0.02 0.01 0.02 0.05 0.12 0.26 0.33 0.33 0.30 0.37 0.55 0.67 0.78 0.90 1.04
0.36 0.27 0.20 0.15 0.11 0.08 0.06 0.06 0.05 0.04 0.06 0.08 0.06 0.05 0.07 0.07 0.07 0.09 0.07 0.08 0.08 0.06 0.06 0.08 0.08 0.10 0.12 0.09 0.05 0.05 0.07 0.10 0.15 0.23 0.37 0.46 0.49 0.62 0.82 0.95 1.03 1.10 1.11
0.18 0.14 0.11 0.09 0.05 0.04 0.02 0.02 0.02 0.03 0.06 0.07 0.05 0.05 0.06 0.07 0.12 0.12 0.06 0.04 0.05 0.02 0.03 0.06 0.08 0.12 0.13 0.08 0.06 0.09 0.11 0.14 0.19 0.23 0.37 0.52 0.59 0.73 0.88 0.99 1.04 1.06 1.05
0.10 0.09 0.07 0.04 0.02 0.01 0.01 0.00 0.00 0.01 0.04 0.07 0.06 0.04 0.04 0.05 0.07 0.12 0.13 0.04 0.01 0.00 0.01 0.03 0.05 0.07 0.09 0.07 0.06 0.08 0.12 0.17 0.23 0.29 0.46 0.59 0.63 0.72 0.82 0.91 0.99 0.97 0.92